{"data":{"norad_id":66097,"epoch":"2026-05-25T03:40:05.008800Z","epoch_age_seconds":68605,"freshness":"FRESH","line1":"1 66097U 25236M   26145.15283575  .00015651  00000+0  53927-3 0  9996","line2":"2 66097  53.1605 108.5492 0001225  81.6590 278.4550 15.30210409 34652","mean_motion":15.30210409,"eccentricity":0.0001225,"inclination_deg":53.1605,"raan_deg":108.5492,"arg_perigee_deg":81.659,"mean_anomaly_deg":278.455,"bstar":0.00053927,"rev_number":3465,"period_min":94.104705570592,"perigee_km":474.34445837644,"apogee_km":476.02352201904,"semimajor_km":6853.3209901977,"source":"CELESTRAK","updated_at":"2026-05-25T13:38:21.029101Z"}}